Theta_e
311 311 311 311 310 310 308 310 313 314 313 312 313 314 316 319 322 323 321 318 320 324 327 329 330 330 331 332 332 332 332 332 331 329 324 322 322 319 320 316 305 301 301 301 301 301 301 301 301 301 300 300 300 300 300 300 300 300 300 301 301 301 302 301 304 305 302 301 302 304 307 308 308 308 308 308 309 309 307 307 308 307 308 309 308
313 313 313 312 312 311 310 309 309 311 313 313 313 314 316 318 320 320 318 318 320 324 327 329 330 330 331 332 332 332 332 332 331 328 324 323 321 318 317 311 302 301 301 301 301 301 301 301 301 300 300 300 300 300 300 300 300 300 300 301 301 301 301 300 303 304 300 300 301 304 304 303 304 305 305 306 307 305 306 309 309 309 309 309 308
319 318 316 313 313 313 311 311 310 309 310 312 313 314 316 317 318 319 320 321 323 325 328 330 331 331 332 332 332 332 332 331 330 326 324 323 319 316 313 305 301 301 301 301 301 301 301 301 300 300 300 300 300 300 300 300 300 300 300 301 300 300 300 300 301 301 300 300 302 304 301 302 305 304 304 305 306 305 308 309 307 308 310 309 309
327 327 324 318 314 313 314 313 313 312 310 311 313 314 316 317 320 324 326 327 328 329 330 331 332 332 333 332 332 332 331 331 329 326 325 323 319 315 308 301 301 301 301 301 300 300 301 301 301 302 301 301 301 300 300 300 300 300 300 301 300 300 300 300 301 301 300 300 303 302 299 305 307 303 304 307 308 309 309 309 308 310 310 309 310
332 331 330 326 319 314 315 315 316 317 315 316 317 317 319 322 327 329 330 330 331 331 331 332 333 333 333 332 332 332 331 330 328 327 326 322 318 312 304 300 301 301 301 300 300 300 300 300 301 301 301 300 301 300 300 300 300 300 300 301 300 300 300 300 301 300 300 301 303 300 300 306 305 301 306 307 307 308 307 308 310 310 310 310 310
332 332 331 331 328 321 319 321 322 323 322 321 322 323 325 328 330 330 331 331 331 332 333 333 333 333 332 332 332 331 331 329 327 327 325 321 316 308 301 300 301 300 300 300 300 300 300 300 299 299 299 299 300 299 300 300 300 300 300 300 300 300 300 300 300 301 300 301 301 299 300 303 301 301 305 306 307 306 305 308 310 309 308 308 307
332 332 331 331 332 330 328 328 328 328 327 326 326 327 329 330 331 331 332 332 332 333 333 333 333 333 332 332 331 331 330 328 327 326 324 320 312 304 300 300 300 300 300 300 300 300 300 300 299 299 299 299 299 299 300 300 300 300 300 300 300 300 299 299 300 300 301 300 299 299 300 300 300 301 302 305 306 304 305 308 309 306 304 303 303
332 332 332 332 332 333 333 332 331 331 332 331 331 332 332 332 333 333 332 332 333 333 333 332 332 332 332 332 331 331 330 328 327 326 324 318 308 301 300 300 300 300 300 300 300 300 300 299 299 299 299 299 299 299 299 299 299 300 300 299 299 299 299 299 299 300 301 301 300 300 300 299 300 302 302 305 306 302 305 307 304 303 303 303 302
333 333 333 334 333 333 333 333 332 332 333 334 334 334 334 334 334 334 334 333 333 333 333 332 332 332 332 331 330 330 329 327 326 325 322 315 304 300 300 300 300 300 300 300 299 299 299 299 299 299 299 299 299 299 299 299 299 299 299 299 299 299 299 299 299 300 301 301 301 299 299 300 301 303 302 304 305 301 302 303 300 300 301 302 302
332 333 334 335 335 335 334 333 333 333 334 335 335 335 335 335 335 334 334 333 333 333 333 332 332 332 332 331 330 329 327 326 325 324 320 310 301 300 300 300 300 300 300 300 299 299 299 299 299 298 299 299 299 299 299 299 299 299 299 298 299 299 299 299 299 300 301 300 301 298 300 303 303 303 302 303 304 300 299 299 298 299 299 299 301
332 333 334 335 335 335 334 334 333 333 334 335 335 335 335 335 335 334 334 333 333 333 333 333 332 332 331 330 329 328 326 325 324 323 318 306 300 300 300 300 300 300 300 299 299 299 299 299 299 298 299 299 299 299 299 299 299 299 299 298 299 299 298 299 298 300 300 300 301 298 300 304 303 301 301 302 302 298 298 298 297 299 298 298 300
331 333 333 334 334 334 334 334 333 333 334 335 335 335 335 335 334 334 334 334 333 333 332 332 332 331 331 330 328 327 325 324 323 322 315 304 300 300 300 300 300 300 300 299 299 299 299 299 298 298 299 299 299 299 299 299 299 299 299 298 299 299 298 298 298 299 299 299 300 298 299 303 301 299 300 301 299 297 297 297 297 298 298 299 299
332 333 332 333 333 333 334 333 333 333 333 334 335 335 335 335 335 334 334 333 333 332 332 332 331 330 330 328 326 325 324 323 323 322 313 302 300 300 299 300 300 300 299 299 299 299 299 299 298 299 299 299 299 299 299 299 299 299 299 299 299 299 298 298 298 298 298 298 299 299 299 300 300 299 299 299 298 297 297 296 297 298 298 298 299
332 333 333 333 333 333 334 333 333 332 333 335 335 335 335 335 335 334 334 333 333 332 331 331 331 330 330 327 324 323 323 323 322 321 312 301 299 300 299 300 300 299 299 299 299 299 299 299 299 299 299 299 299 299 299 299 299 299 299 299 298 298 298 298 298 297 297 298 299 298 298 299 299 299 299 298 297 297 297 296 297 297 297 298 299
332 333 333 333 333 333 333 333 333 333 332 334 335 335 335 335 334 334 333 333 332 332 331 331 330 330 328 325 323 322 321 321 321 320 313 302 299 300 299 300 299 299 299 299 299 299 299 299 299 299 299 299 299 299 299 299 299 299 299 299 298 298 298 298 298 297 297 297 298 298 299 299 299 298 297 297 297 296 296 297 297 297 297 298 298
332 332 332 333 333 333 333 333 333 333 333 333 334 334 334 334 334 334 333 333 332 332 331 330 330 329 327 324 323 321 320 321 320 318 313 303 299 299 300 300 300 299 299 299 299 300 300 300 300 300 300 300 300 300 300 299 299 299 298 298 298 298 298 298 298 297 297 297 297 298 299 299 298 297 297 297 296 296 296 296 297 297 298 298 300
330 330 331 332 334 333 333 333 333 333 333 333 334 334 334 333 333 333 333 332 332 331 330 329 329 328 328 325 324 322 322 321 318 315 312 305 299 299 300 300 300 300 300 300 301 301 301 301 301 301 301 301 301 300 300 300 299 299 299 298 298 298 298 298 298 297 297 297 297 298 299 298 297 296 296 296 296 296 296 296 297 298 298 299 301
329 330 331 332 334 334 332 333 333 333 333 332 332 333 334 333 333 333 333 333 331 330 330 329 328 328 328 327 326 324 323 321 318 314 311 305 300 299 300 300 300 300 301 301 302 302 302 302 302 302 302 301 301 301 301 301 300 299 299 298 298 298 298 298 298 297 297 297 296 297 298 297 296 297 296 296 296 296 296 296 296 298 299 300 301
329 331 332 333 334 333 332 332 334 334 333 333 332 333 333 333 333 332 332 332 331 330 330 329 328 327 327 327 327 327 326 324 321 316 311 306 302 300 301 301 301 301 302 302 302 302 302 302 302 303 302 302 302 301 301 301 301 300 299 298 298 298 298 298 298 297 297 297 296 296 297 296 296 296 296 295 296 296 296 295 296 298 299 299 299
330 332 333 334 335 334 332 332 333 334 333 333 333 333 332 331 331 330 330 330 330 329 329 329 328 328 326 326 326 327 327 326 324 320 315 310 305 303 302 303 303 303 302 302 302 302 302 302 303 303 303 303 302 301 301 301 301 301 300 298 298 298 298 298 297 297 297 296 296 296 296 296 296 296 296 296 296 296 295 295 296 297 297 296 296
330 333 334 335 335 334 332 332 332 333 334 333 334 333 332 331 330 329 329 329 330 330 330 330 329 328 327 325 325 326 326 325 323 321 318 314 309 306 305 304 304 304 303 302 302 302 302 302 302 303 303 303 302 302 301 301 301 301 300 298 298 298 298 297 297 297 297 296 296 296 296 296 295 295 296 296 296 295 295 295 295 296 296 295 296
330 332 334 335 335 334 333 332 332 333 334 334 334 333 333 332 331 331 331 330 330 330 330 330 329 328 327 326 325 325 325 325 323 321 320 318 314 310 308 306 305 305 305 303 302 302 302 302 302 303 303 303 303 302 301 301 301 301 299 298 297 297 297 297 297 296 296 296 296 296 296 295 295 296 296 296 296 295 295 295 295 295 295 295 296
330 331 333 334 335 335 333 333 333 333 334 334 334 333 332 332 332 332 330 328 327 328 328 329 328 327 327 326 326 325 325 324 323 321 320 320 318 314 311 309 307 307 306 304 303 302 302 302 303 303 303 303 303 302 301 301 301 301 299 298 297 297 297 297 296 296 296 296 296 296 296 296 296 296 296 296 295 295 295 295 295 295 294 295 296
330 331 332 333 334 334 334 333 333 333 333 333 333 333 332 332 332 330 327 325 325 325 326 327 327 327 326 326 326 325 325 323 322 322 320 320 319 317 316 312 308 307 307 305 303 302 302 303 303 303 303 303 302 301 301 301 301 300 299 298 297 297 297 297 296 296 296 296 296 296 296 296 296 296 296 296 295 295 294 294 294 294 294 295 295
330 330 330 331 333 334 334 333 332 332 333 333 333 332 333 333 332 329 326 324 324 323 324 325 326 326 326 326 325 325 323 322 321 321 320 319 319 318 317 315 310 307 307 306 304 303 303 303 303 303 303 302 302 301 301 301 301 300 298 298 297 297 297 296 296 296 296 296 296 296 296 296 296 296 296 295 295 294 294 294 294 294 294 295 295
330 329 329 329 331 333 334 333 332 332 332 333 333 332 333 333 331 329 326 323 323 322 322 323 323 324 324 323 323 322 321 320 319 318 317 316 317 317 317 316 312 308 307 306 305 305 304 304 304 303 303 302 302 301 301 301 301 300 298 297 297 297 297 296 296 296 296 296 296 296 296 296 296 296 296 295 295 294 294 294 293 293 294 294 294
330 330 330 329 330 332 334 333 333 332 332 333 333 333 333 332 331 329 325 322 321 321 320 319 320 320 320 319 319 319 317 317 315 312 310 311 313 314 315 315 312 308 307 306 306 306 305 305 304 303 302 302 302 302 301 301 301 299 298 297 297 297 296 296 296 296 296 296 296 296 296 296 296 296 296 295 295 294 293 293 293 293 293 293 294
330 331 331 330 331 332 333 333 333 332 332 332 333 333 332 332 330 328 324 320 320 320 318 316 315 315 316 315 315 314 313 311 309 306 305 307 309 310 311 312 311 309 307 306 306 305 305 305 304 303 303 302 302 302 301 301 300 299 297 297 297 296 296 296 296 296 296 296 296 296 296 296 296 296 296 295 295 294 294 294 293 293 293 293 294
330 331 332 331 331 333 333 333 333 333 333 333 333 332 331 330 328 326 322 318 318 319 316 314 313 312 311 310 310 309 308 307 305 303 303 304 305 306 306 307 309 311 309 308 307 306 305 305 304 303 303 302 302 302 301 301 300 298 297 297 296 296 296 296 296 296 296 296 296 296 296 296 296 296 296 295 295 294 294 294 294 293 293 294 295
331 332 332 332 332 333 333 333 333 333 333 332 332 332 330 328 326 323 319 317 319 317 313 312 311 309 308 307 306 306 305 304 303 302 302 302 302 303 303 303 305 309 310 309 308 306 305 305 304 303 303 302 302 302 301 300 299 297 297 297 296 296 296 296 296 296 296 296 296 296 296 296 296 296 296 296 295 294 294 294 294 294 294 294 294
332 332 332 333 333 332 332 333 333 333 333 332 332 331 329 327 325 321 318 318 320 316 311 310 308 306 305 304 304 304 303 302 302 301 301 301 301 301 301 301 301 304 307 309 309 307 305 304 303 303 302 302 301 301 301 299 298 297 297 296 296 296 296 296 296 296 296 296 296 296 296 296 296 296 296 296 295 295 295 294 294 294 294 294 294
331 331 332 333 333 333 332 332 333 333 332 332 332 330 329 327 325 322 321 322 321 316 311 308 306 304 303 303 303 302 302 301 301 301 301 300 300 300 299 300 299 302 305 307 308 308 305 304 303 303 302 302 302 301 300 298 297 297 296 296 296 296 296 296 296 296 296 296 296 296 296 296 296 296 296 296 296 295 295 295 295 295 294 294 294
331 331 332 334 333 333 332 332 332 332 332 332 332 330 329 327 325 324 324 323 320 314 309 306 304 303 302 302 302 301 301 301 300 300 300 300 300 299 299 299 299 301 304 307 307 307 305 304 304 303 302 302 302 301 299 297 297 297 296 296 296 296 296 296 296 296 296 296 296 296 296 296 296 296 296 296 295 295 295 295 295 295 294 294 295
330 330 333 334 333 333 332 332 332 331 331 331 331 330 329 327 326 325 323 320 315 311 307 305 303 302 301 301 301 301 301 300 300 300 300 299 299 299 299 299 298 299 302 304 306 306 305 304 304 303 303 302 300 299 298 297 297 297 296 297 297 296 296 296 296 296 296 296 296 296 296 296 296 296 296 295 295 295 295 295 295 295 294 295 296
330 331 334 335 333 333 332 332 331 330 330 330 330 329 328 327 326 324 320 315 311 308 305 304 302 301 301 301 300 300 300 300 300 300 299 299 299 299 298 298 298 298 299 300 302 304 304 304 303 303 302 300 298 298 297 297 297 297 297 297 296 296 296 296 296 296 296 296 296 296 296 296 296 296 295 295 295 295 295 296 295 295 295 296 297
330 332 335 335 334 333 332 332 331 329 329 329 329 329 327 326 326 322 316 311 309 307 304 303 301 300 300 300 300 300 300 300 299 299 299 299 298 298 298 298 298 298 298 298 299 300 301 301 301 300 299 298 298 297 297 296 296 296 297 297 297 296 296 296 296 296 296 296 296 296 296 296 296 296 295 295 295 296 296 296 295 296 297 297 298
331 334 335 335 334 333 333 332 330 329 328 329 329 328 327 326 324 319 313 309 308 306 304 302 300 300 300 300 300 300 299 299 299 299 299 298 298 298 298 298 298 298 298 298 298 298 298 298 298 298 298 298 297 297 297 296 296 296 297 297 297 297 296 296 296 296 296 296 296 296 296 296 296 295 295 295 296 297 297 297 296 297 297 298 298
333 335 335 335 334 333 333 332 330 329 328 329 329 327 326 325 321 316 312 309 307 306 303 301 300 300 300 300 300 299 299 299 299 298 298 298 298 298 298 298 298 298 298 298 298 298 298 298 298 297 297 297 297 297 297 297 296 297 297 297 297 297 296 296 296 296 296 296 296 296 297 297 296 295 296 297 297 298 298 297 297 297 298 298 298
334 335 335 335 334 333 332 332 330 329 329 329 329 327 326 324 320 315 311 308 307 305 303 301 300 300 299 299 299 299 299 299 298 298 298 298 298 298 298 297 298 299 300 298 297 298 297 297 297 297 297 297 297 297 297 297 297 297 298 298 297 297 296 296 296 297 297 296 296 297 298 298 296 296 297 298 298 298 298 298 298 298 298 298 298
335 334 334 335 334 333 333 332 330 329 329 330 328 327 326 324 320 315 311 308 306 305 303 301 300 300 299 299 299 299 299 298 298 298 298 298 298 297 298 298 299 301 300 298 297 297 297 297 297 297 297 297 297 297 297 297 297 298 298 298 297 297 296 296 296 297 297 296 296 297 298 298 297 296 297 298 298 298 298 298 298 298 298 298 298
334 334 334 335 334 333 333 332 330 329 329 329 328 326 325 323 319 315 311 309 307 305 302 301 300 300 299 299 299 298 298 298 298 298 298 297 297 298 299 300 300 300 298 297 297 297 297 297 297 297 297 297 297 297 297 297 297 298 298 298 297 297 296 296 297 297 297 297 297 297 298 298 297 297 297 298 298 298 298 298 298 298 298 298 298
334 333 334 335 334 333 332 331 330 329 329 328 327 326 325 322 318 315 312 310 307 305 303 301 300 300 299 299 298 298 298 298 298 298 297 297 298 299 300 299 298 298 297 297 297 297 297 297 297 297 297 297 297 297 297 297 298 298 298 298 298 297 296 296 296 297 297 297 297 298 298 298 298 297 298 298 298 298 298 298 298 298 298 298 298
334 333 334 335 334 333 332 330 330 329 328 327 326 325 324 322 318 315 313 310 308 305 302 301 300 299 299 299 298 298 298 298 298 297 297 297 298 299 299 298 297 297 296 296 297 296 296 296 296 297 297 297 297 297 297 297 298 299 298 298 298 297 297 297 297 297 297 297 297 298 298 298 297 297 297 297 297 297 298 298 298 298 297 297 298
334 333 334 335 333 332 331 330 329 328 327 326 325 325 324 321 319 316 314 312 309 305 303 301 300 299 299 299 298 298 298 298 297 297 297 297 298 299 299 297 297 297 296 296 296 296 296 296 296 297 297 297 297 297 297 298 299 299 298 298 298 297 297 297 297 297 297 297 297 297 298 298 297 297 297 297 297 297 298 297 297 297 297 297 297
333 334 335 334 332 331 330 329 329 328 327 326 326 325 324 321 318 317 316 313 310 306 303 301 300 299 299 299 298 298 298 298 298 297 297 297 297 298 298 297 296 297 297 296 296 296 296 296 296 296 297 297 296 297 297 298 299 299 299 299 299 298 298 298 297 297 297 297 297 297 298 299 298 297 298 299 298 297 297 297 297 297 296 296 297
333 334 334 332 331 330 329 328 328 327 326 326 326 325 324 321 318 317 316 313 310 306 303 301 300 300 299 299 299 299 299 298 298 297 297 297 297 298 297 296 296 297 296 296 296 296 296 296 296 297 297 297 297 297 297 298 299 299 299 300 299 299 299 298 298 298 297 297 298 298 298 300 299 297 298 299 298 297 298 297 297 297 296 296 296
334 334 332 331 331 330 328 328 328 327 326 326 326 325 324 321 318 317 316 313 309 305 303 301 300 300 300 299 299 299 299 299 298 298 297 297 297 297 297 296 296 296 296 296 296 296 296 296 296 297 297 297 297 297 297 298 298 299 299 299 299 299 299 299 299 299 298 298 298 298 298 299 299 297 297 298 297 297 298 298 297 297 297 296 296
334 333 331 331 330 329 328 328 328 327 326 326 326 325 324 321 319 317 315 311 308 305 303 302 301 300 300 300 299 299 300 299 299 298 298 298 297 297 297 296 296 296 296 296 296 296 296 296 297 298 299 298 297 297 297 298 298 299 299 299 299 299 299 300 300 300 300 299 298 298 298 299 299 298 297 297 297 297 298 298 298 297 297 297 296
334 332 331 330 330 329 327 327 327 326 326 326 326 325 323 321 319 317 314 310 307 305 304 302 301 301 300 300 300 300 301 300 300 300 299 299 298 297 297 296 296 296 296 296 296 296 296 297 298 299 299 299 298 297 297 297 298 299 299 299 300 300 300 300 301 301 300 300 299 298 298 299 299 298 297 297 297 297 297 298 298 298 297 297 297
333 332 330 330 329 329 327 326 326 325 326 326 325 324 323 321 319 316 314 311 308 306 305 303 302 302 301 301 301 301 302 302 302 301 300 299 298 297 297 296 296 296 296 296 296 296 296 297 298 299 300 300 299 298 297 297 298 299 299 299 300 300 300 300 301 301 300 300 300 298 298 299 299 299 298 297 298 298 297 297 298 298 298 297 297
333 332 330 329 330 329 327 326 325 326 326 326 324 324 323 321 319 316 313 311 308 307 306 304 303 302 301 302 302 302 303 303 303 303 301 300 298 297 296 296 296 296 296 296 295 296 296 296 297 298 300 300 299 297 296 297 298 299 299 299 299 299 300 300 301 300 300 301 300 298 298 299 298 298 298 298 299 299 298 297 298 299 299 298 297
Wind_Speed
12 11 11 11 11 12 12 14 17 18 19 18 18 18 17 16 15 14 12 10 10 8 6 5 5 4 4 3 3 2 2 3 5 7 9 9 9 9 8 8 6 5 6 6 6 5 5 5 6 7 9 10 11 11 12 12 13 14 14 14 15 15 15 17 18 17 19 19 19 18 17 18 18 17 17 17 17 17 18 19 19 19 18 18 18
12 11 11 11 11 11 11 12 14 16 17 17 17 17 17 16 15 13 12 11 10 9 7 6 6 5 4 3 2 2 2 3 5 7 9 9 10 9 9 7 4 4 4 4 5 5 5 6 7 8 9 10 10 11 12 12 13 12 13 14 14 15 15 17 17 18 20 19 19 18 17 18 17 17 18 18 18 18 18 18 18 18 18 19 19
13 12 11 11 11 11 11 11 11 13 14 15 16 16 16 15 14 13 12 10 9 9 8 6 6 6 5 3 2 2 1 3 5 7 9 10 10 9 8 5 3 3 3 3 4 4 5 6 7 8 8 9 10 11 11 12 12 12 12 13 14 15 16 17 17 18 19 19 18 17 19 19 17 19 21 20 19 19 18 17 18 18 18 19 19
14 13 12 12 12 12 11 11 11 11 12 13 14 15 15 14 14 13 12 10 9 9 8 6 6 5 4 3 3 1 1 3 5 8 9 10 9 8 6 4 3 3 3 3 3 4 6 7 7 7 8 8 9 10 10 11 12 12 12 13 15 16 16 17 18 19 20 19 17 18 20 18 17 21 21 19 19 18 18 18 18 18 18 19 19
15 14 13 13 13 13 12 12 11 11 11 12 13 13 14 14 14 13 12 11 10 8 7 7 7 5 4 4 3 2 1 3 5 8 10 10 8 6 4 2 2 2 2 2 3 5 6 6 6 6 7 7 8 9 10 10 11 12 12 14 15 16 17 18 18 19 20 19 18 20 20 17 19 23 20 19 19 18 19 19 18 18 18 19 18
15 14 14 14 14 13 13 12 12 12 12 12 12 13 14 14 13 12 11 10 10 9 7 7 7 6 5 4 3 2 2 3 6 8 10 9 7 4 2 1 1 1 1 3 4 4 5 5 5 5 6 6 7 8 9 11 11 11 13 14 15 17 17 18 19 19 19 20 20 20 19 19 22 23 21 20 20 20 21 19 18 18 18 19 19
15 14 14 15 14 14 13 13 13 13 13 13 13 13 14 13 12 12 11 11 10 9 7 7 7 6 5 4 3 3 3 4 6 8 9 9 6 2 1 1 1 1 2 3 3 3 3 4 4 4 5 6 6 7 9 10 10 11 13 14 16 17 18 19 20 19 19 20 21 22 21 21 22 22 22 21 21 23 22 19 19 20 21 21 22
16 15 15 15 15 14 13 14 14 14 14 13 13 13 14 13 12 12 11 11 10 9 8 7 7 6 6 5 4 3 4 5 6 8 9 8 5 2 0 1 1 1 2 2 2 2 3 3 3 4 5 6 6 7 8 9 10 11 13 15 16 17 18 19 20 20 20 21 22 22 22 22 22 22 22 20 20 24 22 20 23 24 24 23 24
17 16 15 15 14 14 14 15 15 15 14 13 13 13 13 13 13 12 11 9 8 8 8 8 8 8 7 7 5 4 5 6 7 8 9 7 4 1 1 0 1 1 1 1 2 2 2 3 3 4 5 6 7 7 8 8 9 11 13 15 16 17 18 18 19 21 22 22 21 22 23 22 21 20 21 19 20 24 23 23 25 25 25 25 25
18 17 17 15 14 14 13 14 15 15 15 14 13 13 13 13 12 12 11 9 8 7 7 8 9 9 8 7 6 6 6 7 7 8 8 5 3 2 1 1 0 0 1 1 1 1 1 3 3 4 5 6 7 7 8 8 9 10 13 15 16 17 17 17 18 20 22 22 21 22 21 19 20 20 21 19 20 26 26 25 26 26 26 27 25
19 18 17 16 15 14 13 13 14 15 15 15 14 14 13 13 12 12 11 10 8 7 7 8 9 9 9 8 7 7 8 8 8 8 7 5 3 2 2 2 2 1 2 2 2 2 2 3 3 4 5 6 7 7 8 9 9 10 12 15 16 17 17 17 18 18 20 21 21 22 18 16 19 21 21 20 22 27 28 27 27 27 26 27 25
19 18 17 16 15 14 13 13 14 15 16 15 14 14 13 13 12 12 10 10 9 8 8 8 9 10 10 10 9 10 10 9 9 8 7 5 4 4 3 3 2 2 3 3 3 3 3 3 3 4 5 6 7 8 9 9 9 10 12 14 15 17 17 18 18 18 19 20 21 22 18 16 20 22 21 22 25 29 29 28 28 27 26 26 25
20 18 17 17 16 15 14 14 14 15 16 15 14 14 13 13 13 12 11 10 10 10 9 9 11 11 11 12 12 12 11 10 10 9 7 6 6 5 4 4 3 3 3 3 3 3 3 3 3 4 5 6 7 8 10 10 10 11 12 13 15 17 18 18 19 18 19 20 21 22 20 18 20 22 22 24 27 29 29 29 28 27 27 27 26
20 18 17 16 16 16 16 15 15 16 16 15 15 15 14 14 14 13 12 11 10 10 10 11 13 14 13 13 13 13 12 12 11 10 8 7 7 6 6 5 4 4 4 4 3 3 3 3 4 5 5 6 7 9 10 11 11 12 13 14 16 18 19 19 19 19 19 20 20 21 20 19 20 21 23 25 28 29 29 29 29 28 28 28 28
21 18 16 16 16 16 16 15 15 16 17 17 17 16 15 15 14 13 13 12 11 11 11 13 14 15 14 12 12 11 11 13 13 11 10 8 8 8 7 7 6 5 5 5 4 4 4 4 5 5 6 7 8 10 11 12 13 14 15 16 17 18 20 20 20 20 20 19 19 20 20 20 20 21 24 26 28 29 29 28 28 28 28 28 28
21 18 16 15 16 16 15 15 15 16 17 18 17 17 16 15 14 14 13 12 13 13 14 15 15 16 14 12 11 10 8 11 12 11 10 10 10 10 9 8 7 7 6 6 5 5 5 5 5 6 6 8 9 11 12 13 15 16 16 17 18 19 20 21 22 22 21 20 19 19 19 19 20 22 24 26 27 28 28 27 27 27 27 27 27
20 18 17 16 16 15 15 15 15 16 18 17 16 16 15 15 14 14 13 13 13 13 15 15 16 17 16 13 10 8 7 8 8 8 10 10 10 11 11 10 9 9 8 7 6 6 6 6 6 7 7 9 10 12 13 14 16 17 18 18 19 20 22 23 23 23 22 20 19 18 18 19 21 22 24 25 26 26 26 26 26 25 26 26 26
20 19 18 17 16 15 15 15 15 16 16 16 15 16 15 14 14 14 14 13 12 13 14 15 17 18 19 18 14 11 9 8 6 6 9 11 11 12 12 12 11 10 9 8 7 7 7 8 8 8 8 10 11 12 13 15 16 17 18 19 20 21 23 24 24 24 22 20 19 18 17 19 20 22 23 24 25 26 26 26 26 25 26 26 26
20 19 18 17 16 15 15 15 15 15 15 15 15 15 14 14 14 14 14 14 13 14 14 15 17 18 19 20 19 18 16 14 10 8 7 10 12 13 14 13 12 12 11 10 9 9 9 10 10 10 10 10 11 12 13 15 17 18 18 19 20 22 24 25 26 25 22 20 19 18 18 19 20 21 23 24 25 26 26 26 26 26 25 26 27
21 19 18 17 16 15 15 16 16 15 15 14 14 13 13 13 14 14 14 14 14 14 15 15 16 17 18 19 19 19 19 17 15 11 9 9 11 14 15 15 14 14 13 12 11 11 12 12 12 12 12 12 12 13 14 16 18 19 19 20 21 23 24 26 26 25 22 20 18 17 18 19 19 20 22 24 25 26 27 26 26 25 26 27 28
21 20 18 17 17 16 15 16 16 15 15 15 14 14 13 13 13 13 13 13 13 14 15 16 16 16 16 17 18 18 18 17 16 14 12 10 10 14 16 16 16 16 15 14 13 13 14 14 13 13 13 14 14 14 14 16 18 19 20 20 22 23 25 26 26 25 22 20 18 17 18 18 19 20 22 24 25 26 27 26 25 25 26 28 29
22 21 19 18 17 16 16 16 16 16 16 16 16 15 14 12 12 12 12 12 13 14 16 16 15 14 15 16 17 17 17 17 16 16 15 13 11 12 16 17 18 18 17 16 15 16 16 16 15 14 15 15 15 15 15 16 18 19 20 21 22 23 24 25 25 24 22 20 19 18 18 18 19 21 22 23 24 26 26 26 25 25 27 28 29
22 22 21 19 18 16 16 16 16 16 17 17 17 15 13 12 12 12 12 13 13 14 15 16 16 15 15 17 17 16 16 16 16 15 14 15 14 12 14 16 17 18 18 17 16 17 18 17 16 16 16 17 17 16 16 17 18 19 20 21 22 23 24 24 24 22 21 19 19 18 18 19 21 22 23 23 24 25 25 25 25 26 27 28 29
23 24 23 21 19 18 18 18 18 17 17 18 18 15 13 13 13 12 13 13 13 14 16 16 17 16 16 16 17 16 16 15 15 15 14 15 14 12 14 15 16 18 19 17 17 18 19 18 17 17 17 17 18 17 16 17 18 19 20 21 22 23 23 24 23 21 20 18 18 18 19 20 21 22 22 23 24 25 25 24 25 26 27 28 30
25 25 25 22 20 18 18 19 17 16 18 19 18 15 13 14 14 13 14 13 13 14 15 15 15 16 15 15 16 17 16 15 14 15 15 14 14 13 15 15 16 20 21 18 19 20 20 19 18 18 18 18 18 17 17 17 18 19 20 21 21 22 23 23 22 20 18 18 17 18 19 20 20 21 22 23 24 24 24 24 25 26 28 29 30
25 25 24 22 20 18 18 18 17 15 17 19 17 15 14 14 14 15 15 14 13 13 14 14 15 15 15 15 16 17 16 14 14 15 15 15 15 15 15 15 16 20 20 19 20 20 19 20 20 18 19 18 18 17 17 17 18 19 20 20 21 22 23 22 21 19 18 17 17 18 19 19 20 21 21 22 23 24 24 24 25 26 28 29 29
23 22 21 21 19 17 18 18 17 15 16 18 17 15 14 14 14 15 15 14 14 13 14 14 14 14 14 15 16 16 15 14 14 14 13 13 15 15 15 15 16 18 18 18 19 18 19 21 20 19 19 19 18 17 17 18 18 19 20 20 21 22 21 21 19 18 18 17 17 18 18 19 20 20 21 22 23 24 23 24 25 26 27 28 29
21 20 19 19 18 17 17 17 17 16 17 17 15 14 13 13 14 15 15 14 14 14 14 13 13 13 14 15 15 15 15 14 14 13 12 12 14 15 15 16 16 16 17 18 19 18 20 23 20 19 20 18 18 17 17 18 18 19 19 20 20 21 20 19 19 18 17 17 17 17 18 19 19 20 21 22 23 23 23 24 25 26 27 28 29
21 19 17 17 17 17 17 16 15 16 16 16 15 14 13 14 15 14 15 14 14 14 14 13 13 13 14 14 14 14 14 14 13 12 12 12 13 14 15 16 16 15 17 19 19 20 21 22 20 20 20 18 17 17 17 18 18 18 19 20 20 19 19 18 18 18 17 17 16 17 18 18 19 20 20 22 22 22 22 23 25 26 27 27 28
21 19 17 17 17 17 16 15 15 14 15 15 14 13 13 15 16 15 15 15 14 14 13 13 13 13 14 13 13 14 14 13 12 12 12 13 13 14 15 16 17 17 18 18 17 19 21 21 20 20 20 18 17 17 16 16 17 18 19 20 19 18 18 18 18 18 17 16 16 16 18 18 18 19 20 21 22 21 22 23 24 25 26 27 28
22 19 17 17 17 17 16 15 15 15 15 14 14 13 13 15 16 15 15 15 14 13 13 13 13 13 13 13 13 14 13 12 12 12 12 13 13 14 14 15 16 17 20 18 15 16 19 20 20 21 20 18 17 16 15 15 16 17 18 19 19 18 17 17 17 17 17 16 15 16 17 18 18 19 20 21 22 21 21 22 23 25 26 27 28
22 20 18 17 17 17 16 16 16 16 15 14 14 14 13 14 15 14 15 15 14 14 14 14 13 12 13 13 13 12 11 11 11 11 12 12 12 12 12 13 15 16 18 19 15 15 18 18 19 19 18 17 16 15 14 14 15 16 18 18 19 18 17 16 16 17 17 16 15 16 17 17 17 18 19 21 21 21 21 22 23 24 26 27 28
22 21 19 17 17 16 16 15 15 15 14 14 14 14 13 13 14 14 14 15 15 14 14 13 12 12 13 13 12 11 10 11 11 11 11 11 10 11 11 11 12 14 16 19 17 17 19 18 17 18 17 16 15 14 13 13 14 15 16 17 18 18 17 16 15 15 15 15 15 16 16 16 17 18 19 20 21 20 21 22 23 24 25 26 28
22 21 20 18 17 17 16 15 15 14 13 13 14 14 13 13 14 14 14 14 15 14 14 12 11 12 12 12 10 10 10 10 11 10 10 10 10 10 9 9 9 10 13 16 18 19 19 17 17 17 16 15 14 13 12 12 13 14 15 16 16 17 17 16 14 13 13 14 15 16 16 16 17 18 19 20 20 19 20 21 22 23 24 26 28
22 21 20 18 18 17 17 16 15 14 13 14 14 14 14 14 15 15 14 14 14 13 11 11 11 12 12 11 10 10 10 10 10 10 9 9 9 8 8 7 7 7 8 11 14 16 16 16 16 16 14 13 12 11 12 12 12 13 14 14 14 15 17 17 14 12 11 13 15 16 15 15 16 17 18 18 18 18 19 20 21 22 23 25 28
23 22 20 18 18 19 18 16 15 14 13 14 14 14 14 14 15 14 14 14 13 11 10 11 12 12 12 11 10 10 9 9 9 9 9 9 8 7 6 5 5 6 7 8 9 11 12 13 13 13 12 11 10 11 11 11 12 13 13 13 13 14 16 16 13 11 10 11 14 15 14 14 16 17 16 15 16 17 19 20 20 21 23 25 28
23 21 20 19 20 20 19 17 16 14 13 14 15 14 13 14 14 14 14 13 12 11 11 12 12 13 12 11 10 9 9 9 9 9 9 8 6 5 5 5 5 6 6 7 8 9 10 10 11 11 11 10 10 10 10 11 11 11 11 13 14 14 14 13 11 9 9 11 13 12 12 13 15 15 14 14 15 17 19 20 20 21 23 25 27
24 22 20 19 20 20 19 18 16 14 14 15 15 15 14 13 14 15 14 13 12 11 12 12 12 13 12 11 11 10 10 10 9 9 8 7 5 5 5 5 5 5 5 8 9 10 10 10 11 11 10 10 10 10 10 11 11 10 9 10 12 14 13 12 9 7 8 10 11 10 11 13 14 13 12 13 15 18 20 21 20 21 23 25 28
24 22 21 19 20 20 19 18 16 14 14 16 17 15 14 14 14 14 13 12 12 12 12 13 13 13 13 12 11 11 11 11 10 9 8 6 6 6 6 5 5 5 7 9 10 10 10 11 11 11 10 10 9 10 11 12 11 11 10 10 10 11 12 11 9 7 7 9 9 9 11 13 13 11 11 13 15 17 19 21 22 22 24 26 28
25 23 21 19 19 20 19 18 16 15 16 17 17 16 14 14 15 14 13 12 12 12 13 14 15 14 13 13 12 12 12 11 10 8 7 7 7 7 6 6 7 9 9 10 10 10 11 11 11 10 10 10 10 10 12 12 11 11 12 12 12 11 10 10 10 9 8 8 8 8 11 13 13 11 12 13 15 17 18 20 23 24 25 26 29
25 24 22 20 20 21 19 18 17 17 17 18 17 16 14 14 15 14 14 13 13 14 14 15 15 15 14 13 13 13 12 11 9 8 7 7 7 6 6 8 9 9 9 11 11 11 11 11 11 11 10 10 10 11 11 10 10 11 12 12 13 12 11 10 9 10 9 9 9 9 10 13 14 13 14 15 16 18 20 21 23 24 25 27 28
26 25 24 22 22 21 19 18 18 18 18 18 17 15 14 14 15 15 14 14 14 15 15 15 15 15 15 14 13 12 11 10 9 8 9 9 8 7 8 9 9 9 9 11 10 10 11 11 10 10 9 9 10 10 10 10 10 11 12 12 12 12 11 10 9 10 11 10 10 10 10 12 14 15 16 16 18 19 20 21 22 24 25 27 28
28 26 25 24 23 21 19 19 18 18 19 18 16 15 14 15 16 16 15 15 14 15 15 15 14 14 14 13 12 11 10 9 9 9 10 11 10 9 10 11 11 10 10 10 9 9 10 10 10 9 9 9 10 10 9 9 10 10 11 11 11 11 11 11 11 11 12 12 11 11 11 12 14 15 17 18 19 19 20 21 22 24 26 27 27
29 27 26 25 24 22 20 20 19 19 19 18 16 15 14 14 16 16 16 15 15 15 15 14 14 14 13 12 11 10 10 10 10 11 12 13 12 11 12 12 12 11 11 11 10 9 8 9 9 9 9 10 10 10 9 9 9 10 10 10 10 10 10 12 13 13 13 14 13 13 12 13 14 16 17 18 19 19 20 22 23 25 27 28 27
29 27 25 24 24 22 21 21 21 21 20 18 16 15 15 15 16 16 15 15 15 15 15 14 14 13 13 12 11 10 10 11 11 12 13 15 14 13 13 13 13 12 12 12 11 10 9 9 9 9 9 9 9 10 10 9 10 10 9 9 9 9 10 11 12 13 14 15 15 15 14 13 15 18 18 18 18 17 19 22 24 26 27 28 27
30 28 26 25 25 24 22 22 22 21 20 18 17 15 16 16 16 16 16 15 16 16 15 14 13 12 12 11 10 10 10 11 12 12 13 15 14 14 14 14 13 12 11 11 10 9 9 8 9 9 9 9 10 11 11 10 10 10 9 8 9 9 10 10 11 12 13 14 15 16 15 13 16 20 19 18 18 17 17 21 24 25 27 28 28
31 29 27 27 27 25 23 22 22 21 19 18 16 16 16 17 17 17 17 17 17 16 15 14 12 12 12 11 11 10 10 11 11 11 12 14 14 15 15 15 13 12 11 10 9 9 8 9 9 10 10 11 11 12 12 11 10 10 9 9 10 10 10 11 11 11 12 14 14 15 15 15 17 21 21 21 21 18 18 20 23 25 27 29 29
31 27 26 28 27 24 22 24 24 22 21 19 17 17 17 17 18 18 18 18 17 15 14 13 13 13 12 12 11 11 10 11 10 10 11 13 14 15 15 15 13 12 11 10 9 9 9 10 10 11 12 12 12 12 12 12 11 10 10 10 11 11 11 11 10 8 10 12 13 14 15 15 16 21 23 23 21 19 18 20 22 26 28 31 31
31 29 28 28 27 23 22 25 26 24 22 20 17 17 18 19 19 19 18 17 15 14 13 13 13 13 12 11 10 10 10 10 10 9 10 12 14 15 16 15 14 12 11 10 10 10 10 10 11 12 13 13 12 13 13 13 12 11 11 11 11 10 10 10 10 9 9 10 12 14 15 15 15 19 24 25 23 20 19 21 24 27 30 32 34
32 31 29 28 28 24 20 21 23 22 21 19 17 17 19 19 19 18 17 16 14 14 13 13 12 12 12 12 10 9 9 9 9 9 10 12 14 15 16 16 15 13 11 10 10 10 11 11 11 12 13 13 13 13 13 13 12 12 12 11 10 10 10 10 10 12 11 9 10 14 14 14 15 18 23 26 24 21 21 24 26 27 29 33 36
31 30 29 30 29 25 19 18 20 21 21 20 18 18 18 18 18 17 16 16 15 13 13 12 12 12 12 12 11 10 10 9 9 9 10 12 14 15 15 15 15 13 11 10 10 11 12 12 13 13 14 14 14 14 13 13 13 12 12 12 12 12 11 10 10 12 11 10 12 14 14 14 16 18 21 23 23 22 24 27 28 27 28 32 36
Wind_Direction
179 174 173 174 173 171 172 176 182 186 189 189 190 193 195 196 197 200 204 203 201 205 210 226 244 251 256 269 284 314 341 8 17 10 8 6 2 357 357 1 358 358 4 4 7 11 10 11 19 27 30 30 29 29 30 30 28 25 21 23 24 18 17 16 13 16 20 18 14 13 13 14 13 11 9 8 7 4 3 1 0 360 359 358 353
179 176 176 179 178 175 173 174 180 187 191 192 193 195 197 198 199 201 202 201 200 204 214 231 242 239 240 251 274 305 337 14 12 5 5 2 360 358 360 5 2 5 9 2 4 7 9 16 27 30 31 29 28 27 27 27 27 23 18 19 20 16 15 15 14 14 16 15 13 13 15 11 9 10 8 6 5 3 4 2 359 359 359 356 352
178 177 179 183 183 181 177 174 176 183 188 191 193 195 197 197 197 196 196 197 199 204 215 227 229 226 232 245 264 290 343 11 4 360 1 359 358 359 1 8 7 11 14 4 1 5 16 26 30 29 28 27 28 27 23 21 22 20 14 15 16 15 14 14 13 13 13 13 14 14 13 10 11 12 8 6 6 7 6 1 358 360 359 356 356
181 181 182 185 186 184 180 178 177 180 183 185 188 191 192 191 190 190 192 196 198 205 212 216 219 221 224 234 250 269 336 350 352 354 353 355 357 359 4 11 13 14 16 8 3 10 22 28 29 28 25 24 25 23 17 15 17 14 9 11 14 12 13 12 11 12 10 12 16 12 11 14 11 9 8 9 10 9 7 4 2 1 358 357 357
186 186 187 188 188 185 183 182 180 183 184 181 183 188 189 188 188 191 195 199 200 206 209 210 214 216 221 227 229 228 283 327 341 345 346 349 352 359 13 19 17 21 14 12 20 22 22 21 22 25 20 18 21 13 8 11 12 9 5 9 12 11 11 9 9 11 8 9 11 7 12 13 5 9 13 9 8 8 6 6 3 0 359 358 356
190 189 191 191 189 187 186 186 186 187 188 185 186 189 191 192 194 198 201 205 207 207 207 211 216 218 225 229 216 218 264 310 328 335 339 343 347 358 32 39 40 45 28 25 27 22 15 15 16 14 11 14 17 6 2 6 5 4 4 7 11 10 9 7 6 9 7 6 5 6 12 8 2 10 14 7 6 7 6 6 3 358 357 355 354
194 193 194 192 190 190 191 192 193 194 195 195 195 197 200 201 204 209 211 212 213 209 204 209 218 222 229 231 219 225 266 296 316 326 332 337 340 354 54 86 103 94 60 41 25 17 11 16 14 5 6 8 11 5 358 357 358 1 4 8 12 10 7 4 2 5 6 3 1 3 5 3 3 8 11 9 4 3 5 5 2 356 354 353 352
198 197 196 195 191 193 196 198 198 201 204 204 204 206 209 210 210 215 218 219 216 208 201 206 217 224 230 231 222 234 263 282 304 318 327 332 332 334 96 113 97 88 68 51 19 16 21 21 13 4 8 5 3 0 351 349 355 1 6 10 11 10 7 1 357 360 3 3 0 360 359 359 3 5 8 9 360 360 5 2 360 358 357 356 355
200 200 199 197 194 196 200 201 202 205 209 208 208 210 213 215 213 212 213 214 212 205 203 207 215 224 228 228 220 232 256 274 296 312 322 327 322 309 242 207 92 77 51 36 16 24 27 18 9 5 8 2 357 352 345 348 356 3 10 12 10 8 6 359 356 356 358 360 359 357 355 355 360 1 2 5 359 358 2 0 360 1 359 357 357
200 200 200 199 195 198 203 203 205 206 209 208 208 211 211 212 213 211 205 201 201 204 211 212 215 225 228 224 222 235 253 271 292 308 318 320 304 276 238 231 245 356 332 329 356 14 7 4 5 1 358 354 348 344 344 348 358 8 14 12 9 5 2 359 358 356 353 354 354 354 355 352 353 356 357 360 357 355 358 359 360 1 359 358 359
200 199 200 201 198 201 205 206 206 208 208 207 207 209 207 206 207 208 204 198 197 204 216 218 220 227 231 234 238 249 260 271 287 301 307 301 275 257 230 225 239 254 277 281 300 314 328 349 352 345 341 339 340 342 344 349 360 12 16 13 8 0 358 360 0 356 350 349 347 350 356 349 345 350 352 352 350 351 355 357 358 359 358 0 2
201 200 201 202 202 205 208 209 209 210 211 209 208 208 209 209 207 208 207 203 202 203 211 219 223 224 227 238 244 249 257 267 279 289 292 277 254 244 229 227 232 246 266 272 288 302 315 327 326 323 325 328 336 344 347 353 2 11 16 13 6 358 358 0 360 356 349 346 343 346 352 345 340 345 347 345 346 349 352 355 356 357 358 0 2
203 202 203 203 205 207 211 212 211 212 213 212 212 211 211 214 212 210 210 212 212 208 209 215 221 223 221 225 232 241 251 261 272 276 273 258 243 237 231 232 234 242 253 263 274 283 292 298 297 301 310 325 338 346 353 0 5 9 12 11 6 359 358 359 358 355 349 345 343 344 347 342 339 343 343 342 344 348 350 351 354 356 358 358 359
206 205 204 205 208 211 212 213 212 213 212 209 212 214 212 214 215 212 210 215 220 220 217 214 218 226 228 226 228 238 250 258 264 265 256 240 235 234 230 228 229 234 237 242 253 259 266 273 280 294 310 329 341 349 358 5 7 7 7 7 4 359 357 357 356 353 350 346 343 341 342 341 340 341 342 341 345 348 348 350 353 356 358 359 359
206 206 205 208 211 214 214 214 214 214 212 208 210 213 215 216 218 218 217 215 218 224 224 222 224 226 226 225 228 233 246 257 261 261 250 233 227 227 226 223 219 220 223 225 235 246 260 273 283 299 321 336 346 354 1 5 5 5 3 2 1 357 356 355 354 353 350 347 343 340 340 340 340 342 342 342 345 348 348 350 353 355 358 359 358
207 208 209 211 214 215 216 216 214 213 213 212 211 213 216 219 220 221 223 221 221 225 226 228 231 227 219 217 226 228 238 260 267 261 249 232 226 225 221 216 211 211 217 224 233 247 261 275 289 308 333 344 353 358 1 2 1 360 359 358 357 355 353 353 353 352 351 349 344 341 339 338 340 343 344 345 346 347 349 351 353 355 356 355 354
209 212 214 215 217 217 216 215 212 210 213 213 213 216 220 223 225 225 229 232 234 234 232 231 232 232 228 226 227 224 235 261 268 260 252 237 227 224 219 212 207 208 216 225 237 253 268 280 295 314 334 343 350 355 357 358 357 355 354 354 354 352 351 351 351 351 351 349 344 342 339 338 341 344 345 347 347 347 348 351 352 353 352 351 351
211 214 217 217 219 219 216 214 211 209 211 212 211 216 222 226 229 232 235 240 242 240 238 237 234 234 237 239 239 239 247 259 253 250 255 242 231 224 217 211 205 208 218 228 240 256 271 284 296 310 323 333 340 345 349 352 352 351 350 350 350 350 349 350 350 350 350 349 345 343 342 342 345 345 346 348 348 347 348 350 351 351 351 351 350
212 215 217 218 220 219 216 214 211 208 209 210 210 212 219 226 231 235 238 240 240 241 243 243 239 239 242 244 247 248 253 260 257 252 248 241 235 225 216 212 207 209 219 229 241 255 267 276 288 299 310 321 328 332 339 345 346 345 346 347 347 347 348 348 348 348 348 349 346 345 345 347 347 345 346 348 347 348 349 351 351 350 351 350 348
213 216 218 220 221 220 217 214 211 207 204 205 208 210 217 224 228 231 234 236 240 245 248 249 248 248 247 246 247 250 254 259 262 259 247 238 235 226 218 214 213 217 223 229 238 251 261 268 279 291 301 310 316 322 329 336 339 340 342 344 345 346 347 347 346 345 346 348 348 347 348 349 349 346 346 348 347 348 350 351 351 349 349 350 351
214 218 220 222 223 221 219 216 212 207 203 205 208 214 220 222 225 229 232 238 244 249 250 252 253 254 252 249 248 251 255 259 261 259 251 240 232 228 223 216 217 223 227 230 235 243 254 263 272 283 294 301 306 312 321 328 333 337 340 342 343 344 345 345 344 343 345 348 349 350 350 349 349 348 347 348 348 349 351 351 351 349 349 352 353
216 219 221 223 224 222 219 218 215 209 207 209 213 219 224 226 230 234 239 244 248 251 253 253 252 249 249 251 250 250 254 259 262 262 257 248 236 234 233 226 224 229 230 230 233 239 249 259 268 277 287 294 298 304 312 321 328 334 337 340 341 342 344 343 342 342 345 348 350 350 350 348 349 349 348 350 350 350 351 350 349 350 351 353 353
219 221 222 224 224 223 221 219 218 215 213 214 217 222 228 234 235 235 239 243 248 252 251 247 243 236 235 241 246 249 253 258 263 266 262 256 247 242 241 233 227 231 233 231 232 238 247 256 264 272 281 287 291 297 305 315 325 332 335 337 339 341 342 342 341 343 346 347 349 349 348 347 347 349 350 351 351 350 350 349 349 351 352 353 354
221 222 223 224 224 224 222 220 219 218 219 220 220 222 229 237 239 238 241 245 249 250 244 237 233 230 229 235 243 250 252 255 259 261 258 256 251 245 247 239 225 229 234 231 230 236 244 253 260 267 275 280 284 290 300 312 322 329 333 334 337 339 340 341 340 342 346 347 348 347 345 345 347 350 351 351 350 349 350 350 350 352 353 355 356
222 222 223 224 224 225 226 226 225 224 226 227 225 223 229 237 241 243 247 248 248 246 240 231 227 229 232 238 245 250 253 254 255 256 254 250 244 240 249 245 229 231 235 230 230 236 243 249 255 263 269 273 278 287 297 309 319 325 330 332 335 337 338 339 339 341 345 346 346 345 342 344 347 350 351 350 349 349 350 351 352 353 354 356 356
224 225 225 226 226 227 230 231 230 229 232 234 229 224 229 237 240 243 245 245 243 240 236 227 224 228 232 238 245 249 253 254 253 254 253 248 240 236 244 245 231 231 231 227 231 236 242 247 251 257 264 268 275 285 297 307 316 322 327 331 333 336 337 337 338 340 344 347 346 343 341 344 349 351 351 349 349 350 352 352 353 354 355 355 355
228 229 229 229 228 229 231 230 229 231 235 238 234 227 230 238 245 246 244 244 244 240 233 227 225 228 233 239 245 248 251 252 251 251 247 240 235 233 241 243 231 224 224 226 230 232 238 246 250 254 260 267 275 285 297 306 314 321 326 331 333 336 337 337 339 341 345 347 344 341 342 345 348 350 350 350 350 351 353 353 354 355 355 355 355
229 231 231 232 230 230 231 231 230 228 229 236 237 234 238 245 250 248 242 242 247 243 234 230 229 231 235 240 243 247 248 247 246 245 239 232 232 234 240 243 233 221 220 224 227 228 237 245 249 254 260 266 276 286 296 305 314 321 326 330 333 335 337 337 339 341 344 346 344 342 342 344 346 348 349 350 350 352 353 354 355 355 354 354 355
228 230 231 231 231 231 231 233 234 226 224 230 234 235 241 243 243 241 236 237 244 245 236 233 235 236 238 238 240 243 241 240 239 238 235 234 238 240 242 243 237 227 226 228 228 231 239 244 246 253 261 267 276 287 297 305 314 322 327 330 332 334 337 338 340 341 342 343 344 342 341 341 343 346 348 349 350 351 352 354 355 354 353 353 354
227 229 230 228 229 230 230 231 234 229 226 231 235 237 237 236 239 238 235 237 244 245 238 236 238 239 239 238 238 237 235 235 236 235 237 240 243 245 244 244 240 235 236 237 236 239 243 245 246 251 261 268 276 287 296 305 316 323 326 328 330 334 338 340 342 340 338 340 343 343 339 337 342 345 346 347 349 350 351 353 354 352 352 352 353
225 227 228 226 226 226 225 226 229 228 228 232 237 239 234 236 243 242 237 242 247 245 240 238 237 237 239 236 233 231 230 233 235 236 241 243 245 246 245 246 242 237 240 241 243 249 248 248 251 254 261 268 275 286 295 307 316 320 324 327 329 334 338 340 342 338 334 336 343 343 336 334 340 344 343 344 346 347 349 351 351 350 351 351 353
223 224 226 226 225 223 221 222 225 225 228 234 239 239 234 237 245 245 244 246 246 242 240 237 235 236 235 229 226 226 227 232 234 236 242 243 245 247 245 247 244 236 237 239 242 253 254 252 255 256 259 265 273 283 295 306 314 319 325 327 328 331 335 339 340 336 332 333 340 341 334 333 338 339 339 341 343 344 347 349 349 348 350 352 354
223 223 223 223 223 223 220 221 224 226 230 238 242 242 240 241 245 249 250 246 240 238 237 235 234 235 231 223 221 224 227 231 233 235 239 240 242 246 245 247 244 236 234 235 239 250 256 256 254 254 258 264 271 280 291 302 311 319 324 325 326 328 331 336 338 335 329 327 334 338 334 332 336 336 335 337 340 343 344 346 347 349 351 353 355
223 222 222 221 220 220 219 220 224 228 234 242 244 244 244 246 249 252 249 241 237 237 235 235 236 233 228 221 219 224 227 231 234 234 237 238 240 244 244 244 245 239 233 235 240 248 255 256 252 254 260 264 269 279 289 298 309 318 321 320 321 324 326 330 334 332 325 322 328 335 334 333 335 334 333 336 339 342 344 347 349 351 354 356 358
220 220 219 220 220 218 218 220 224 228 236 243 243 243 244 249 252 250 243 236 235 235 234 236 237 232 228 222 220 224 229 232 235 235 236 238 238 241 242 242 242 240 236 236 239 245 251 253 253 255 259 261 268 282 290 297 307 315 317 316 316 320 322 324 328 329 323 319 325 333 335 335 335 335 335 338 341 343 347 352 355 356 357 359 360
217 217 216 217 219 218 217 220 224 229 236 241 241 241 245 250 250 243 234 230 231 232 233 233 231 228 225 222 221 224 229 234 235 234 234 236 237 239 240 241 242 242 241 238 239 244 247 249 250 250 253 261 272 282 288 295 304 310 313 313 314 317 317 317 322 327 322 318 325 334 338 338 339 340 341 344 346 349 355 358 358 359 360 0 360
215 214 212 213 215 216 217 220 224 229 234 237 237 239 246 249 244 235 228 226 227 229 231 230 226 224 222 220 221 222 226 232 232 230 229 231 233 232 232 239 244 243 243 246 245 244 245 248 251 250 254 263 270 277 285 291 299 305 308 311 313 314 312 314 319 325 324 323 330 338 342 344 346 347 350 353 353 356 1 2 359 359 360 359 357
213 211 210 212 213 213 216 220 224 228 231 231 231 237 244 243 235 229 226 226 226 228 231 228 224 223 222 219 218 218 220 225 224 221 222 221 218 218 225 234 236 243 255 254 246 241 244 249 250 251 256 263 266 274 283 290 298 303 303 307 311 309 310 315 322 328 326 328 337 345 348 352 354 353 355 358 358 360 1 1 358 356 356 354 352
210 209 209 210 209 211 216 220 224 227 228 226 228 234 240 239 232 228 227 227 229 232 233 229 224 222 221 220 218 216 218 219 218 215 214 212 211 215 221 224 234 264 271 253 241 240 244 246 246 250 256 262 268 277 286 294 303 307 309 314 313 306 305 313 324 337 337 335 343 353 356 356 355 355 357 358 357 357 356 355 354 353 351 350 349
208 208 209 208 207 211 215 218 223 226 224 222 225 230 236 236 232 228 227 227 230 233 234 232 227 222 220 220 219 217 218 218 218 218 218 217 218 222 227 237 259 281 272 245 235 237 240 243 247 251 256 262 271 283 291 298 305 308 313 320 321 316 315 319 326 335 342 346 352 358 359 358 355 353 354 354 353 351 348 347 348 348 348 347 347
205 206 209 210 210 212 213 216 222 224 220 218 221 227 232 233 229 226 226 228 230 232 233 232 229 224 221 220 221 219 220 223 224 223 221 218 220 233 255 264 273 278 257 235 232 236 239 244 246 249 256 263 275 286 292 296 301 305 312 321 326 326 327 330 329 330 339 354 358 354 354 357 359 357 353 348 345 343 341 341 343 344 344 345 346
204 204 208 211 211 212 214 217 222 222 218 215 216 222 227 227 224 222 223 226 228 230 232 232 229 225 223 222 223 224 225 228 227 223 221 218 220 241 264 263 257 251 238 234 239 243 245 246 246 252 261 268 279 286 288 292 300 305 313 323 330 330 329 330 328 329 338 348 351 347 347 354 359 1 359 352 346 344 344 344 344 344 345 345 346
202 203 209 211 208 209 214 219 221 221 216 212 213 219 223 222 220 221 222 223 227 229 231 231 227 224 224 225 226 228 228 227 222 221 223 220 224 246 260 251 238 229 225 232 243 250 252 250 251 259 267 272 279 283 285 292 297 302 311 322 331 333 333 331 329 331 336 341 345 344 344 350 356 359 359 355 350 349 350 349 348 349 350 349 347
201 205 210 209 205 207 214 219 219 216 211 208 211 216 220 220 220 221 222 224 226 228 229 229 226 223 223 224 225 226 226 224 222 223 225 223 229 248 254 242 231 225 226 230 232 236 244 251 256 263 268 273 279 280 282 287 292 299 309 319 328 332 333 332 330 330 334 339 341 338 340 349 353 354 355 354 352 351 350 351 350 349 350 350 347
201 206 207 205 204 208 215 219 217 211 206 206 210 215 217 217 218 221 224 226 228 228 227 226 224 222 221 220 220 220 220 222 224 224 223 223 233 250 250 237 228 228 233 235 232 232 236 245 254 260 265 271 275 275 277 281 287 293 301 310 319 325 330 331 327 326 331 336 335 333 339 346 346 349 354 352 353 353 349 349 348 346 348 349 347
201 203 204 205 208 212 218 218 212 207 205 205 209 213 215 216 217 220 223 225 226 225 224 223 220 219 218 215 215 217 220 225 228 228 226 229 240 251 247 235 231 235 239 239 240 241 242 247 255 261 264 266 265 265 270 275 281 286 291 299 309 315 320 325 327 328 329 332 331 332 338 339 338 346 352 350 351 354 350 348 347 346 348 350 348
203 202 203 207 210 215 217 211 204 203 204 205 207 211 214 215 216 218 221 223 223 222 221 220 216 213 212 211 211 215 223 228 229 229 235 242 250 253 243 233 234 241 243 243 243 242 244 250 254 256 258 257 255 260 268 273 276 280 287 296 304 310 314 320 326 330 327 327 330 333 335 335 336 342 347 349 351 352 350 350 350 349 350 352 352
203 204 206 205 208 214 212 203 202 204 203 202 206 211 213 215 215 216 219 220 219 219 218 217 213 209 209 210 213 215 220 224 225 230 244 252 254 250 241 235 237 242 242 242 243 244 248 252 254 254 255 256 256 261 268 272 274 278 285 293 300 306 310 312 314 320 321 323 330 335 336 335 336 339 342 345 348 350 351 351 351 351 352 354 355
202 203 203 201 205 211 208 204 205 205 201 199 205 211 213 214 215 216 218 218 216 216 215 213 212 210 208 208 212 216 216 219 224 237 253 257 253 246 240 237 239 240 239 241 247 252 255 256 257 255 253 255 258 261 266 269 271 274 280 287 293 298 303 304 304 312 319 320 326 336 337 334 334 336 338 340 343 348 351 352 353 353 353 353 355
202 201 199 199 203 206 206 205 203 198 195 196 204 211 213 214 215 216 217 215 212 211 210 209 210 209 206 205 208 212 212 216 228 244 257 258 252 244 239 239 241 239 237 243 252 259 261 261 260 255 250 252 257 261 265 266 266 267 272 279 285 288 295 299 302 312 320 318 323 334 336 331 331 334 336 339 341 342 346 351 354 354 352 352 353
203 202 199 199 201 199 199 201 195 190 192 196 202 208 211 213 214 213 212 210 208 206 205 205 205 203 201 202 203 206 211 217 230 248 258 256 249 242 237 238 242 243 242 248 257 261 261 258 255 250 246 249 255 259 261 261 260 262 267 274 281 284 289 294 299 309 317 316 320 330 332 330 333 336 337 338 337 335 341 348 350 350 350 350 351